Time,TemperatureF,DewpointF,PressureIn,WindDirection,WindDirectionDegrees,WindSpeedMPH,WindSpeedGustMPH,Humidity,HourlyPrecipIn,Conditions,Clouds,dailyrainin,SoftwareType,DateUTC
2013-02-06 00:04:00,38.3,18.8,24.36,SW,225,2.3,2.3,45,0.00,CLR,,0.00,WeatherDisplay:10.37,2013-02-06 07:04:00,
2013-02-06 00:09:00,37.6,18.6,24.37,SW,225,2.3,2.3,46,0.00,CLR,,0.00,WeatherDisplay:10.37,2013-02-06 07:09:00,
2013-02-06 00:14:00,37.4,19.0,24.37,West,270,3.5,3.5,47,0.00,CLR,,0.00,WeatherDisplay:10.37,2013-02-06 07:14:00,
2013-02-06 00:20:00,35.4,15.6,24.36,West,270,4.6,4.6,44,0.00,CLR,,0.00,WeatherDisplay:10.37,2013-02-06 07:20:00,
2013-02-06 00:25:00,34.2,15.5,24.36,West,270,4.6,4.6,46,0.00,CLR,,0.00,WeatherDisplay:10.37,2013-02-06 07:25:00,
2013-02-06 00:30:00,35.1,17.3,24.36,NW,315,5.8,5.8,48,0.00,CLR,,0.00,WeatherDisplay:10.37,2013-02-06 07:30:00,
2013-02-06 00:35:00,35.8,16.5,24.36,NW,315,3.5,3.5,45,0.00,CLR,,0.00,WeatherDisplay:10.37,2013-02-06 07:35:00,
2013-02-06 00:41:00,35.6,16.3,24.36,NW,315,5.8,5.8,45,0.00,CLR,,0.00,WeatherDisplay:10.37,2013-02-06 07:41:00,
2013-02-06 00:46:00,36.3,17.0,24.36,NW,315,5.8,5.8,45,0.00,CLR,,0.00,WeatherDisplay:10.37,2013-02-06 07:46:00,
2013-02-06 00:51:00,36.5,17.1,24.36,NW,315,5.8,5.8,45,0.00,CLR,,0.00,WeatherDisplay:10.37,2013-02-06 07:51:00,
2013-02-06 00:56:00,36.1,16.3,24.36,NW,315,3.5,3.5,44,0.00,CLR,,0.00,WeatherDisplay:10.37,2013-02-06 07:56:00,
2013-02-06 01:01:00,36.1,16.3,24.36,NW,315,4.6,4.6,44,0.00,CLR,,0.00,WeatherDisplay:10.37,2013-02-06 08:01:00,
2013-02-06 01:07:00,36.1,16.3,24.36,NW,315,4.6,4.6,44,0.00,CLR,,0.00,WeatherDisplay:10.37,2013-02-06 08:07:00,
2013-02-06 01:12:00,35.4,16.7,24.36,NW,315,4.6,4.6,46,0.00,CLR,,0.00,WeatherDisplay:10.37,2013-02-06 08:12:00,
2013-02-06 01:17:00,36.0,16.1,24.36,NW,315,4.6,4.6,44,0.00,CLR,,0.00,WeatherDisplay:10.37,2013-02-06 08:17:00,
2013-02-06 01:23:00,37.8,18.8,24.35,NW,315,3.5,3.5,46,0.00,CLR,,0.00,WeatherDisplay:10.37,2013-02-06 08:23:00,
2013-02-06 01:28:00,38.3,19.3,24.35,NW,315,3.5,3.5,46,0.00,CLR,,0.00,WeatherDisplay:10.37,2013-02-06 08:28:00,
2013-02-06 01:33:00,39.0,19.4,24.35,NW,315,3.5,3.5,45,0.00,CLR,,0.00,WeatherDisplay:10.37,2013-02-06 08:33:00,
2013-02-06 01:38:00,38.3,18.8,24.35,NW,315,5.8,5.8,45,0.00,CLR,,0.00,WeatherDisplay:10.37,2013-02-06 08:38:00,
2013-02-06 01:44:00,36.1,15.2,24.35,NW,315,4.6,4.6,42,0.00,CLR,,0.00,WeatherDisplay:10.37,2013-02-06 08:44:00,
2013-02-06 01:49:00,34.9,15.7,24.35,NW,315,3.5,3.8,45,0.00,CLR,,0.00,WeatherDisplay:10.37,2013-02-06 08:49:00,
2013-02-06 01:54:00,34.2,15.5,24.34,NW,315,4.6,4.6,46,0.00,CLR,,0.00,WeatherDisplay:10.37,2013-02-06 08:54:00,
2013-02-06 01:59:00,34.2,16.0,24.34,NW,315,5.8,5.8,47,0.00,CLR,,0.00,WeatherDisplay:10.37,2013-02-06 08:59:00,
2013-02-06 02:09:00,34.3,16.2,24.34,NW,315,3.5,3.5,47,0.00,CLR,,0.00,WeatherDisplay:10.37,2013-02-06 09:09:00,
2013-02-06 02:14:00,34.5,16.3,24.34,North,0,3.5,3.5,47,0.00,CLR,,0.00,WeatherDisplay:10.37,2013-02-06 09:14:00,
2013-02-06 02:19:00,35.2,17.0,24.34,North,0,1.1,0.0,47,0.00,CLR,,0.00,WeatherDisplay:10.37,2013-02-06 09:19:00,
2013-02-06 02:24:00,35.8,16.5,24.34,NE,45,1.1,0.0,45,0.00,CLR,,0.00,WeatherDisplay:10.37,2013-02-06 09:24:00,
2013-02-06 02:30:00,36.3,16.5,24.34,North,0,2.3,2.3,44,0.00,CLR,,0.00,WeatherDisplay:10.37,2013-02-06 09:30:00,
2013-02-06 02:35:00,36.7,16.8,24.33,North,0,3.5,3.5,44,0.00,CLR,,0.00,WeatherDisplay:10.37,2013-02-06 09:35:00,
2013-02-06 02:40:00,36.5,16.1,24.33,NW,315,3.5,3.5,43,0.00,CLR,,0.00,WeatherDisplay:10.37,2013-02-06 09:40:00,
2013-02-06 02:45:00,35.2,15.5,24.33,NW,315,5.8,5.8,44,0.00,CLR,,0.00,WeatherDisplay:10.37,2013-02-06 09:45:00,
2013-02-06 02:51:00,34.2,15.0,24.33,NW,315,5.8,5.8,45,0.00,CLR,,0.00,WeatherDisplay:10.37,2013-02-06 09:51:00,
2013-02-06 02:56:00,33.8,15.7,24.33,West,270,6.9,6.9,47,0.00,CLR,,0.00,WeatherDisplay:10.37,2013-02-06 09:56:00,
2013-02-06 03:01:00,33.3,15.7,24.33,NW,315,5.8,5.8,48,0.00,CLR,,0.00,WeatherDisplay:10.37,2013-02-06 10:01:00,
2013-02-06 03:06:00,33.3,15.7,24.33,NW,315,5.8,5.8,48,0.00,CLR,,0.00,WeatherDisplay:10.37,2013-02-06 10:06:00,
2013-02-06 03:11:00,33.3,18.0,24.33,NW,315,8.1,8.1,53,0.00,CLR,,0.00,WeatherDisplay:10.37,2013-02-06 10:11:00,
2013-02-06 03:17:00,33.3,18.4,24.33,NW,315,8.1,8.1,54,0.00,CLR,,0.00,WeatherDisplay:10.37,2013-02-06 10:17:00,
2013-02-06 03:22:00,34.0,19.5,24.33,NW,315,8.1,8.1,55,0.00,CLR,,0.00,WeatherDisplay:10.37,2013-02-06 10:22:00,
2013-02-06 03:27:00,34.5,20.0,24.33,NW,315,8.1,8.1,55,0.00,CLR,,0.00,WeatherDisplay:10.37,2013-02-06 10:27:00,
2013-02-06 03:32:00,34.5,20.0,24.32,NW,315,6.9,6.9,55,0.00,CLR,,0.00,WeatherDisplay:10.37,2013-02-06 10:32:00,
2013-02-06 03:38:00,34.3,19.8,24.33,NW,315,8.1,8.1,55,0.00,CLR,,0.00,WeatherDisplay:10.37,2013-02-06 10:38:00,
2013-02-06 05:50:00,33.4,19.4,24.31,North,0,6.9,6.9,56,0.00,CLR,,0.00,WeatherDisplay:10.37,2013-02-06 12:50:00,
2013-02-06 05:55:00,34.2,19.2,24.31,North,0,8.1,8.1,54,0.00,CLR,,0.00,WeatherDisplay:10.37,2013-02-06 12:55:00,
2013-02-06 06:00:00,34.3,19.4,24.31,NE,45,6.9,6.9,54,0.00,CLR,,0.00,WeatherDisplay:10.37,2013-02-06 13:00:00,
2013-02-06 06:05:00,34.7,19.3,24.31,North,0,5.8,5.8,53,0.00,CLR,,0.00,WeatherDisplay:10.37,2013-02-06 13:05:00,
2013-02-06 06:10:00,34.7,19.3,24.31,North,0,5.8,5.8,53,0.00,CLR,,0.00,WeatherDisplay:10.37,2013-02-06 13:10:00,
2013-02-06 06:16:00,33.8,18.5,24.31,West,270,5.8,5.8,53,0.00,CLR,,0.00,WeatherDisplay:10.37,2013-02-06 13:16:00,
2013-02-06 06:21:00,31.6,17.7,24.32,NW,315,5.8,5.8,56,0.00,CLR,,0.00,WeatherDisplay:10.37,2013-02-06 13:21:00,
2013-02-06 06:26:00,29.8,17.6,24.32,NW,315,6.9,6.9,60,0.00,CLR,,0.00,WeatherDisplay:10.37,2013-02-06 13:26:00,
2013-02-06 06:31:00,29.8,18.8,24.32,NW,315,5.8,5.8,63,0.00,CLR,,0.00,WeatherDisplay:10.37,2013-02-06 13:31:00,
2013-02-06 06:37:00,30.2,18.7,24.32,NW,315,5.8,5.8,62,0.00,CLR,,0.00,WeatherDisplay:10.37,2013-02-06 13:37:00,
2013-02-06 06:42:00,30.4,18.5,24.32,NW,315,5.8,5.8,61,0.00,CLR,,0.00,WeatherDisplay:10.37,2013-02-06 13:42:00,
2013-02-06 06:47:00,30.7,18.5,24.32,NW,315,5.8,5.8,60,0.00,CLR,,0.00,WeatherDisplay:10.37,2013-02-06 13:47:00,
2013-02-06 06:52:00,30.9,18.7,24.32,NW,315,6.9,6.9,60,0.00,CLR,,0.00,WeatherDisplay:10.37,2013-02-06 13:52:00,
2013-02-06 06:57:00,31.1,18.4,24.32,NW,315,6.9,6.9,59,0.00,CLR,,0.00,WeatherDisplay:10.37,2013-02-06 13:57:00,
2013-02-06 07:03:00,31.6,18.5,24.32,NW,315,5.8,5.8,58,0.00,CLR,,0.00,WeatherDisplay:10.37,2013-02-06 14:03:00,
2013-02-06 07:08:00,31.5,18.0,24.33,NW,315,5.8,5.8,57,0.00,CLR,,0.00,WeatherDisplay:10.37,2013-02-06 14:08:00,
2013-02-06 07:13:00,31.6,17.7,24.33,NW,315,5.8,5.8,56,0.00,CLR,,0.00,WeatherDisplay:10.37,2013-02-06 14:13:00,
2013-02-06 07:18:00,32.4,18.0,24.33,NW,315,6.9,6.9,55,0.00,CLR,,0.00,WeatherDisplay:10.37,2013-02-06 14:18:00,
2013-02-06 07:24:00,33.8,18.5,24.33,West,270,6.9,6.9,53,0.00,CLR,,0.00,WeatherDisplay:10.37,2013-02-06 14:24:00,
2013-02-06 07:29:00,34.3,18.5,24.33,NW,315,5.8,5.8,52,0.00,CLR,,0.00,WeatherDisplay:10.37,2013-02-06 14:29:00,
2013-02-06 07:34:00,35.4,18.6,24.34,WNW,292,5.8,5.8,50,0.00,CLR,,0.00,WeatherDisplay:10.37,2013-02-06 14:34:00,
2013-02-06 07:39:00,36.1,17.8,24.33,NW,315,5.8,5.8,47,0.00,CLR,,0.00,WeatherDisplay:10.37,2013-02-06 14:39:00,
2013-02-06 07:44:00,37.0,18.1,24.33,West,270,3.5,3.5,46,0.00,CLR,,0.00,WeatherDisplay:10.37,2013-02-06 14:44:00,
2013-02-06 07:50:00,39.2,20.6,24.34,West,270,3.5,3.5,47,0.00,CLR,,0.00,WeatherDisplay:10.37,2013-02-06 14:50:00,
2013-02-06 07:55:00,39.4,19.8,24.34,West,270,3.5,3.5,45,0.00,CLR,,0.00,WeatherDisplay:10.37,2013-02-06 14:55:00,
2013-02-06 08:00:00,39.6,19.9,24.34,NW,315,4.6,4.6,45,0.00,CLR,,0.00,WeatherDisplay:10.37,2013-02-06 15:00:00,
2013-02-06 08:05:00,39.7,20.1,24.34,West,270,4.6,4.6,45,0.00,CLR,,0.00,WeatherDisplay:10.37,2013-02-06 15:05:00,
2013-02-06 08:11:00,40.5,20.8,24.34,West,270,4.6,4.6,45,0.00,CLR,,0.00,WeatherDisplay:10.37,2013-02-06 15:11:00,
2013-02-06 08:16:00,41.7,21.4,24.34,SW,225,3.5,3.5,44,0.00,CLR,,0.00,WeatherDisplay:10.37,2013-02-06 15:16:00,
2013-02-06 08:21:00,42.4,21.5,24.34,SW,225,5.8,5.8,43,0.00,CLR,,0.00,WeatherDisplay:10.37,2013-02-06 15:21:00,
2013-02-06 08:26:00,43.0,21.4,24.34,SW,225,3.5,3.5,42,0.00,CLR,,0.00,WeatherDisplay:10.37,2013-02-06 15:26:00,
2013-02-06 08:31:00,44.6,21.7,24.34,SW,225,3.5,3.5,40,0.00,CLR,,0.00,WeatherDisplay:10.37,2013-02-06 15:31:00,
2013-02-06 08:37:00,45.5,21.3,24.34,West,270,3.5,3.5,38,0.00,CLR,,0.00,WeatherDisplay:10.37,2013-02-06 15:37:00,
2013-02-06 08:42:00,46.6,21.0,24.34,SW,225,3.5,3.5,36,0.00,CLR,,0.00,WeatherDisplay:10.37,2013-02-06 15:42:00,
2013-02-06 08:47:00,47.8,21.5,24.34,SE,135,3.5,3.5,35,0.00,CLR,,0.00,WeatherDisplay:10.37,2013-02-06 15:47:00,
2013-02-06 08:53:00,48.2,20.4,24.34,South,180,4.5,4.5,33,0.00,CLR,,0.00,WeatherDisplay:10.37,2013-02-06 15:53:00,
2013-02-06 08:58:00,48.2,19.7,24.34,SE,135,5.8,5.8,32,0.00,CLR,,0.00,WeatherDisplay:10.37,2013-02-06 15:58:00,
2013-02-06 09:03:00,48.0,20.9,24.35,South,180,4.6,4.6,34,0.00,CLR,,0.00,WeatherDisplay:10.37,2013-02-06 16:03:00,
2013-02-06 09:08:00,48.4,20.6,24.35,South,180,4.6,4.6,33,0.00,CLR,,0.00,WeatherDisplay:10.37,2013-02-06 16:08:00,
2013-02-06 09:13:00,49.1,19.0,24.34,South,180,3.5,3.5,30,0.00,CLR,,0.00,WeatherDisplay:10.37,2013-02-06 16:13:00,
2013-02-06 09:19:00,48.6,18.5,24.34,SE,135,4.6,4.6,30,0.00,CLR,,0.00,WeatherDisplay:10.37,2013-02-06 16:19:00,
2013-02-06 09:24:00,48.0,20.2,24.35,SE,135,4.6,4.6,33,0.00,CLR,,0.00,WeatherDisplay:10.37,2013-02-06 16:24:00,
2013-02-06 09:29:00,48.6,20.0,24.35,SE,135,3.5,3.5,32,0.00,CLR,,0.00,WeatherDisplay:10.37,2013-02-06 16:29:00,
2013-02-06 09:34:00,50.0,20.5,24.35,SE,135,4.6,4.6,31,0.00,CLR,,0.00,WeatherDisplay:10.37,2013-02-06 16:34:00,
2013-02-06 09:40:00,49.3,18.3,24.35,East,90,3.5,3.5,29,0.00,CLR,,0.00,WeatherDisplay:10.37,2013-02-06 16:40:00,
2013-02-06 09:45:00,49.3,18.3,24.35,SE,135,3.5,3.5,29,0.00,CLR,,0.00,WeatherDisplay:10.37,2013-02-06 16:45:00,
2013-02-06 09:50:00,49.5,18.5,24.35,South,180,3.5,3.5,29,0.00,CLR,,0.00,WeatherDisplay:10.37,2013-02-06 16:50:00,
2013-02-06 09:55:00,50.4,17.6,24.35,South,180,3.5,3.5,27,0.00,CLR,,0.00,WeatherDisplay:10.37,2013-02-06 16:55:00,
2013-02-06 10:01:00,50.7,17.0,24.35,SSE,158,4.6,4.6,26,0.00,CLR,,0.00,WeatherDisplay:10.37,2013-02-06 17:01:00,
2013-02-06 10:06:00,49.3,16.7,24.35,South,180,6.9,6.9,27,0.00,CLR,,0.00,WeatherDisplay:10.37,2013-02-06 17:06:00,
2013-02-06 10:11:00,50.9,18.1,24.35,SE,135,8.1,8.1,27,0.00,CLR,,0.00,WeatherDisplay:10.37,2013-02-06 17:11:00,
2013-02-06 10:17:00,50.2,17.4,24.35,South,180,5.8,5.8,27,0.00,CLR,,0.00,WeatherDisplay:10.37,2013-02-06 17:17:00,
2013-02-06 10:22:00,50.2,18.3,24.35,SE,135,6.9,6.9,28,0.00,CLR,,0.00,WeatherDisplay:10.37,2013-02-06 17:22:00,
2013-02-06 10:27:00,50.2,17.4,24.34,East,90,6.9,6.9,27,0.00,CLR,,0.00,WeatherDisplay:10.37,2013-02-06 17:27:00,
2013-02-06 10:32:00,50.4,16.7,24.34,SW,225,6.9,6.9,26,0.00,CLR,,0.00,WeatherDisplay:10.37,2013-02-06 17:32:00,
2013-02-06 10:37:00,51.8,17.0,24.34,South,180,2.3,3.1,25,0.00,CLR,,0.00,WeatherDisplay:10.37,2013-02-06 17:37:00,
2013-02-06 10:43:00,52.0,16.3,24.34,SE,135,6.9,6.9,24,0.00,CLR,,0.00,WeatherDisplay:10.37,2013-02-06 17:43:00,
2013-02-06 10:48:00,54.0,17.9,24.34,SE,135,6.0,6.0,24,0.00,CLR,,0.00,WeatherDisplay:10.37,2013-02-06 17:48:00,
2013-02-06 10:53:00,53.1,16.2,24.34,SE,135,5.8,5.8,23,0.00,CLR,,0.00,WeatherDisplay:10.37,2013-02-06 17:53:00,
2013-02-06 10:58:00,52.9,16.0,24.33,WNW,292,6.0,6.0,23,0.00,CLR,,0.00,WeatherDisplay:10.37,2013-02-06 17:58:00,
2013-02-06 11:03:00,52.3,16.6,24.33,South,180,4.6,4.6,24,0.00,CLR,,0.00,WeatherDisplay:10.37,2013-02-06 18:03:00,
2013-02-06 11:09:00,55.0,17.9,24.34,SE,135,4.6,4.6,23,0.00,CLR,,0.00,WeatherDisplay:10.37,2013-02-06 18:09:00,
2013-02-06 11:14:00,54.3,16.2,24.33,SSE,158,3.5,5.4,22,0.00,CLR,,0.00,WeatherDisplay:10.37,2013-02-06 18:14:00,
2013-02-06 11:19:00,54.3,16.2,24.33,South,180,3.5,3.5,22,0.00,CLR,,0.00,WeatherDisplay:10.37,2013-02-06 18:19:00,
2013-02-06 11:24:00,55.2,17.0,24.33,SE,135,8.1,8.1,22,0.00,CLR,,0.00,WeatherDisplay:10.37,2013-02-06 18:24:00,
2013-02-06 11:30:00,53.2,17.3,24.33,SE,135,5.8,5.8,24,0.00,CLR,,0.00,WeatherDisplay:10.37,2013-02-06 18:30:00,
2013-02-06 11:35:00,54.7,17.6,24.33,South,180,8.1,8.1,23,0.00,CLR,,0.00,WeatherDisplay:10.37,2013-02-06 18:35:00,
2013-02-06 11:40:00,54.7,17.6,24.33,SW,225,5.8,5.8,23,0.00,CLR,,0.00,WeatherDisplay:10.37,2013-02-06 18:40:00,
2013-02-06 11:45:00,55.6,20.3,24.32,SE,135,8.1,8.1,25,0.00,CLR,,0.00,WeatherDisplay:10.37,2013-02-06 18:45:00,
2013-02-06 11:50:00,54.1,16.1,24.32,SE,135,8.1,8.1,22,0.00,CLR,,0.00,WeatherDisplay:10.37,2013-02-06 18:50:00,
2013-02-06 11:55:00,54.3,17.3,24.32,SE,135,6.9,6.9,23,0.00,CLR,,0.00,WeatherDisplay:10.37,2013-02-06 18:55:00,
2013-02-06 12:01:00,55.2,17.0,24.32,SSE,158,10.4,10.4,22,0.00,CLR,,0.00,WeatherDisplay:10.37,2013-02-06 19:01:00,
2013-02-06 12:06:00,55.4,20.1,24.32,SW,225,5.8,5.8,25,0.00,CLR,,0.00,WeatherDisplay:10.37,2013-02-06 19:06:00,
2013-02-06 12:11:00,55.9,20.6,24.31,South,180,6.9,6.9,25,0.00,CLR,,0.00,WeatherDisplay:10.37,2013-02-06 19:11:00,
2013-02-06 12:16:00,56.1,20.7,24.31,South,180,10.4,10.4,25,0.00,CLR,,0.00,WeatherDisplay:10.37,2013-02-06 19:16:00,
2013-02-06 12:22:00,55.9,20.6,24.30,South,180,8.1,8.1,25,0.00,CLR,,0.00,WeatherDisplay:10.37,2013-02-06 19:22:00,
2013-02-06 12:27:00,55.8,20.4,24.30,SE,135,9.2,9.2,25,0.00,CLR,,0.00,WeatherDisplay:10.37,2013-02-06 19:27:00,
2013-02-06 12:32:00,54.7,18.5,24.29,SE,135,10.4,10.4,24,0.00,CLR,,0.00,WeatherDisplay:10.37,2013-02-06 19:32:00,
2013-02-06 12:37:00,55.8,21.3,24.29,SE,135,10.4,10.4,26,0.00,CLR,,0.00,WeatherDisplay:10.37,2013-02-06 19:37:00,
2013-02-06 12:42:00,57.0,22.4,24.29,South,180,10.4,10.4,26,0.00,CLR,,0.00,WeatherDisplay:10.37,2013-02-06 19:42:00,
2013-02-06 12:48:00,55.8,21.3,24.29,South,180,11.5,11.5,26,0.00,CLR,,0.00,WeatherDisplay:10.37,2013-02-06 19:48:00,
2013-02-06 12:53:00,57.2,21.6,24.28,South,180,8.1,8.1,25,0.00,CLR,,0.00,WeatherDisplay:10.37,2013-02-06 19:53:00,
2013-02-06 12:58:00,58.5,22.7,24.28,South,180,11.5,11.5,25,0.00,CLR,,0.00,WeatherDisplay:10.37,2013-02-06 19:58:00,
2013-02-06 13:03:00,59.0,22.2,24.28,SE,135,8.1,8.1,24,0.00,CLR,,0.00,WeatherDisplay:10.37,2013-02-06 20:03:00,
2013-02-06 13:09:00,59.9,22.0,24.28,South,180,8.1,8.1,23,0.00,CLR,,0.00,WeatherDisplay:10.37,2013-02-06 20:09:00,
2013-02-06 13:14:00,60.1,23.1,24.28,NW,315,10.4,10.4,24,0.00,CLR,,0.00,WeatherDisplay:10.37,2013-02-06 20:14:00,
2013-02-06 13:19:00,60.1,23.1,24.27,SW,225,10.4,10.4,24,0.00,CLR,,0.00,WeatherDisplay:10.37,2013-02-06 20:19:00,
2013-02-06 13:24:00,59.9,23.0,24.27,SW,225,12.7,12.7,24,0.00,CLR,,0.00,WeatherDisplay:10.37,2013-02-06 20:24:00,
2013-02-06 13:30:00,59.0,24.1,24.27,West,270,8.1,8.1,26,0.00,CLR,,0.00,WeatherDisplay:10.37,2013-02-06 20:30:00,
2013-02-06 21:49:00,43.0,24.1,24.34,NW,315,6.9,6.9,47,0.00,CLR,,0.00,WeatherDisplay:10.37,2013-02-07 04:49:00,
2013-02-06 21:54:00,42.6,24.8,24.34,NW,315,5.8,5.8,49,0.00,CLR,,0.00,WeatherDisplay:10.37,2013-02-07 04:54:00,
2013-02-06 21:59:00,42.3,24.4,24.34,NW,315,5.8,5.8,49,0.00,CLR,,0.00,WeatherDisplay:10.37,2013-02-07 04:59:00,
2013-02-06 22:00:00,42.3,24.9,24.34,North,0,5.8,5.8,50,0.00,CLR,,0.00,WeatherDisplay:10.37,2013-02-07 05:00:00,
2013-02-06 22:01:00,42.1,24.8,24.34,NW,315,5.8,5.8,50,0.00,CLR,,0.00,WeatherDisplay:10.37,2013-02-07 05:01:00,
2013-02-06 22:07:00,41.9,24.6,24.34,West,270,5.8,5.8,50,0.00,CLR,,0.00,WeatherDisplay:10.37,2013-02-07 05:07:00,
2013-02-06 22:12:00,41.5,24.7,24.34,NW,315,5.8,5.8,51,0.00,CLR,,0.00,WeatherDisplay:10.37,2013-02-07 05:12:00,
2013-02-06 22:17:00,41.4,25.0,24.34,West,270,6.9,6.9,52,0.00,CLR,,0.00,WeatherDisplay:10.37,2013-02-07 05:17:00,
2013-02-06 22:22:00,41.0,25.2,24.34,West,270,8.1,8.1,53,0.00,CLR,,0.00,WeatherDisplay:10.37,2013-02-07 05:22:00,
2013-02-06 22:27:00,41.0,25.2,24.34,NW,315,6.9,6.9,53,0.00,CLR,,0.00,WeatherDisplay:10.37,2013-02-07 05:27:00,
2013-02-06 22:33:00,41.4,25.9,24.35,NW,315,11.5,11.5,54,0.00,CLR,,0.00,WeatherDisplay:10.37,2013-02-07 05:33:00,
2013-02-06 22:38:00,41.9,26.0,24.34,NW,315,13.8,13.8,53,0.00,CLR,,0.00,WeatherDisplay:10.37,2013-02-07 05:38:00,
2013-02-06 22:43:00,41.9,26.0,24.35,NW,315,11.5,11.5,53,0.00,CLR,,0.00,WeatherDisplay:10.37,2013-02-07 05:43:00,
2013-02-06 22:48:00,42.1,26.2,24.34,NW,315,10.4,10.4,53,0.00,CLR,,0.00,WeatherDisplay:10.37,2013-02-07 05:48:00,
2013-02-06 22:54:00,42.1,26.2,24.35,NW,315,12.7,12.7,53,0.00,CLR,,0.00,WeatherDisplay:10.37,2013-02-07 05:54:00,
2013-02-06 22:59:00,42.1,26.2,24.35,WNW,292,8.1,8.1,53,0.00,CLR,,0.00,WeatherDisplay:10.37,2013-02-07 05:59:00,
2013-02-06 23:04:00,42.1,26.2,24.35,North,0,9.2,9.2,53,0.00,CLR,,0.00,WeatherDisplay:10.37,2013-02-07 06:04:00,
2013-02-06 23:09:00,42.1,26.2,24.35,NW,315,9.2,9.2,53,0.00,CLR,,0.00,WeatherDisplay:10.37,2013-02-07 06:09:00,
2013-02-06 23:14:00,42.1,26.2,24.35,North,0,10.4,10.4,53,0.00,CLR,,0.00,WeatherDisplay:10.37,2013-02-07 06:14:00,
2013-02-06 23:19:00,42.1,26.2,24.35,West,270,9.2,9.2,53,0.00,CLR,,0.00,WeatherDisplay:10.37,2013-02-07 06:19:00,
2013-02-06 23:24:00,42.1,26.2,24.35,NW,315,8.1,8.1,53,0.00,CLR,,0.00,WeatherDisplay:10.37,2013-02-07 06:24:00,
2013-02-06 23:30:00,42.1,26.2,24.36,NW,315,5.8,5.8,53,0.00,CLR,,0.00,WeatherDisplay:10.37,2013-02-07 06:30:00,
2013-02-06 23:35:00,41.9,26.0,24.36,NW,315,4.6,4.6,53,0.00,CLR,,0.00,WeatherDisplay:10.37,2013-02-07 06:35:00,
2013-02-06 23:40:00,41.7,25.8,24.36,NW,315,4.6,4.6,53,0.00,CLR,,0.00,WeatherDisplay:10.37,2013-02-07 06:40:00,
2013-02-06 23:45:00,41.5,26.1,24.36,West,270,8.1,8.1,54,0.00,CLR,,0.00,WeatherDisplay:10.37,2013-02-07 06:45:00,
2013-02-06 23:50:00,41.5,26.1,24.36,NW,315,8.1,8.1,54,0.00,CLR,,0.00,WeatherDisplay:10.37,2013-02-07 06:50:00,
2013-02-06 23:55:00,41.7,25.8,24.36,NW,315,8.1,8.1,53,0.00,CLR,,0.00,WeatherDisplay:10.37,2013-02-07 06:55:00,